SKYSAT-B

Last updated on Tue Jun 17 2025 00:02:29 GMT+0000 (Coordinated Universal Time)

1 40072U 14037D 25167.54290202 .00001117 00000+0 13294-3 0 9994 2 40072 98.3426 102.1937 0006599 34.8488 325.3157 14.86546578591616
UTC large
Height (km)
Speed (km/s)
/
Latitude / Longitude
Inclination (degrees)
Orbital Period (minutes)
Azimuth
Elevation
Range (km)
Doppler Factor

Next 0 passes for location: London (51.5072 / 0.1276)

Sorry there are no passes over London.